Wind_Speed
3 3 3 3 4 4 4 5 6 6 6 7 7 7 7 7 7 8 7 7 7 6 6 5 5 4 4 4 3 4 4 5 5 5 5 5 5 5 5 6 6 7 7
3 3 4 3 4 4 4 4 5 6 6 7 7 7 7 7 7 7 7 8 8 8 7 6 5 5 5 5 5 5 5 6 6 6 6 7 7 6 6 6 7 8 8
4 4 4 4 4 4 3 4 5 5 5 7 7 7 7 7 7 7 8 8 8 9 8 8 7 6 6 6 7 7 7 7 7 7 7 7 7 7 7 7 8 8 8
4 4 4 4 4 4 5 5 5 5 6 6 7 7 8 8 8 8 9 9 9 9 8 8 8 7 7 8 8 8 9 9 9 8 8 8 8 8 8 9 9 9 9
4 4 4 4 4 4 6 6 6 6 6 6 7 8 9 9 9 9 9 9 10 10 10 10 8 8 9 9 10 10 10 10 10 9 9 9 9 9 9 9 10 10 10
4 5 5 5 5 5 6 7 7 6 7 7 8 8 8 9 9 9 10 9 10 11 11 11 11 10 11 11 11 12 12 11 11 11 11 10 10 10 10 11 10 10 10
5 5 5 6 6 7 7 8 8 8 8 8 8 8 9 9 10 10 11 10 11 11 12 12 12 12 12 12 12 13 13 14 14 13 13 13 12 12 11 11 11 11 12
7 6 6 7 7 8 7 8 9 9 9 9 9 9 10 10 11 12 12 12 12 13 13 12 12 13 13 14 14 14 14 15 16 16 16 15 14 13 13 13 13 13 13
9 8 8 8 8 8 7 8 9 9 9 10 11 11 11 12 12 13 13 13 14 14 14 14 13 13 14 14 15 15 15 15 16 17 17 17 15 15 15 15 15 15 14
9 10 9 9 10 10 9 9 10 10 11 11 12 12 13 14 14 14 15 16 16 16 16 15 15 14 15 15 15 16 16 15 16 16 16 17 17 17 17 16 16 16 15
10 11 11 11 11 11 11 11 11 11 12 13 13 13 13 14 15 15 16 17 17 17 17 17 16 17 17 17 17 17 17 16 17 17 17 17 18 18 17 17 16 16 16
11 12 13 13 13 12 13 12 12 13 13 14 14 14 14 14 14 15 15 16 17 18 18 18 18 18 18 19 19 18 18 18 18 19 19 20 20 19 19 18 18 18 17
13 13 14 15 15 14 14 14 14 14 14 15 15 15 15 15 14 14 14 15 16 17 18 19 19 20 20 19 19 19 20 20 20 21 22 22 22 21 21 20 19 19 18
15 16 16 16 16 16 15 15 15 14 14 14 14 15 15 16 15 15 16 16 17 17 18 18 19 20 20 20 21 21 21 21 21 22 23 24 24 24 23 22 21 21 20
16 17 17 17 17 17 17 17 17 17 16 16 16 16 16 16 17 18 19 19 19 19 19 20 21 21 22 22 23 23 23 23 23 24 24 25 26 26 25 24 23 22 22
17 18 19 18 19 20 19 18 19 19 18 18 18 18 18 18 19 19 20 20 21 21 22 22 23 24 24 24 24 25 24 24 25 26 26 26 26 26 26 25 24 24 24
20 20 20 21 21 20 19 19 19 20 20 20 20 20 20 20 21 21 21 22 23 23 24 24 25 25 26 26 26 26 26 25 25 25 26 26 26 26 27 26 26 26 26
22 22 22 22 21 21 21 21 21 21 21 21 21 21 21 22 22 22 23 24 24 24 24 24 25 25 26 27 26 26 27 27 27 26 26 27 27 27 28 29 28 28 28
24 23 23 23 22 22 22 23 23 23 22 22 22 22 22 22 23 24 24 25 25 26 26 25 25 26 27 27 27 27 27 28 28 28 28 28 29 29 30 30 30 30 30
25 25 25 24 24 24 24 24 24 24 24 24 24 24 24 25 25 25 25 26 26 27 27 27 27 27 28 28 28 28 29 29 29 29 30 30 31 31 31 32 32 32 32
26 26 25 25 26 25 25 25 25 25 25 25 26 26 26 26 26 26 26 27 27 27 28 28 28 27 28 28 29 29 29 29 29 30 30 31 31 32 33 33 34 34 34
28 28 27 27 27 27 26 26 26 27 27 27 27 27 27 27 27 27 27 27 27 27 28 28 28 28 28 29 29 30 30 30 30 31 31 31 31 32 33 34 35 36 36
31 30 29 28 28 28 27 27 28 28 27 27 28 28 28 27 28 28 28 28 28 28 28 29 29 29 30 30 30 31 31 31 31 32 33 32 33 33 34 34 35 36 37
32 32 31 30 29 29 29 29 29 29 28 28 28 28 28 28 28 28 28 29 29 29 29 29 30 30 30 30 31 31 31 31 32 32 33 33 33 34 34 34 35 36 36
32 32 32 31 31 31 31 30 29 29 29 28 28 28 28 28 28 29 29 29 29 29 30 30 30 30 30 30 31 31 31 32 32 32 33 33 34 34 35 35 35 35 36
34 35 34 33 33 32 31 31 30 30 29 29 29 29 29 29 29 29 29 30 29 29 30 30 31 30 30 30 30 31 31 31 32 31 32 33 34 34 34 35 35 35 36
Wind_Direction
308 297 301 291 289 274 263 267 264 264 267 259 254 253 251 252 247 246 246 243 238 239 248 255 263 267 278 281 282 272 268 267 269 273 278 276 276 274 273 271 271 271 269
337 311 299 301 286 283 275 282 276 267 264 263 256 257 251 249 248 250 251 249 247 250 254 258 262 261 265 271 274 279 275 268 269 268 272 273 271 269 269 277 276 269 267
338 326 318 317 300 295 290 292 283 265 268 262 259 257 261 253 252 251 250 255 253 253 255 258 261 264 261 264 265 272 276 271 269 268 269 270 271 272 274 276 278 277 271
335 331 328 326 305 287 291 291 285 268 264 258 252 255 255 255 253 253 251 253 256 256 254 254 256 263 263 266 265 269 274 272 270 269 269 270 272 271 271 276 277 276 274
335 334 319 317 314 295 289 291 288 270 265 262 255 255 257 261 261 257 254 255 258 259 258 258 259 261 262 265 266 269 272 268 269 269 269 270 272 270 269 273 274 275 272
340 342 328 310 305 300 293 294 289 279 271 262 257 255 255 257 260 256 257 257 258 261 262 259 259 261 263 264 266 267 269 269 267 267 270 271 271 271 270 272 273 274 271
341 339 335 322 311 304 290 283 280 275 271 266 260 258 259 258 259 260 261 265 266 266 266 261 260 263 266 265 267 267 268 268 266 268 268 269 271 271 271 273 275 274 271
350 342 331 325 321 316 307 292 279 273 268 263 262 261 263 265 264 263 264 264 266 268 267 266 263 264 266 266 268 270 270 269 267 266 266 267 268 269 269 271 272 271 269
348 345 335 327 320 312 304 295 289 283 278 271 265 260 259 261 263 264 265 266 268 273 272 270 268 268 271 272 273 272 273 271 267 266 264 266 267 267 268 269 270 269 268
337 337 330 327 323 317 306 298 291 285 279 279 275 268 265 263 264 265 266 266 268 272 272 270 268 270 274 275 274 271 274 271 268 267 265 265 268 268 267 267 269 270 269
331 331 326 322 320 317 308 301 293 288 284 281 279 275 275 271 268 266 267 269 270 271 269 270 269 270 272 272 274 275 275 273 268 267 266 266 268 269 269 267 266 266 269
323 324 322 319 317 315 313 305 298 294 292 289 284 279 278 278 276 274 270 268 270 271 272 270 270 271 272 273 273 273 273 273 270 267 266 267 265 267 269 267 264 264 265
319 319 318 317 316 311 310 309 306 302 297 293 286 283 280 278 277 276 273 272 271 272 273 272 271 269 269 270 272 273 273 273 272 269 267 267 266 265 265 265 264 264 265
315 317 316 318 316 311 310 311 309 306 304 298 291 287 282 279 275 277 276 277 277 275 274 273 272 271 271 269 268 270 271 270 271 270 269 268 266 265 265 264 264 264 264
311 313 312 313 313 311 310 309 307 303 303 302 296 292 287 284 281 280 279 279 278 277 276 276 275 275 275 273 270 269 269 271 271 272 270 268 267 265 264 262 262 263 264
307 307 307 307 306 307 307 304 302 299 297 296 293 290 287 284 282 282 282 282 281 279 278 278 277 276 277 276 274 271 271 271 270 270 269 269 267 265 264 263 261 262 263
303 303 304 303 303 301 302 303 300 296 294 293 291 289 287 283 281 281 282 282 282 281 281 281 281 279 277 276 275 275 274 273 272 270 269 268 266 265 264 263 262 262 263
302 301 302 302 301 300 299 299 298 296 294 292 290 288 285 284 283 283 282 282 283 284 285 285 283 281 278 277 277 276 275 275 273 270 269 267 266 264 263 263 262 264 264
298 297 300 300 298 298 298 297 296 294 292 290 290 288 286 285 284 284 283 283 284 285 286 285 283 283 281 279 278 278 275 274 272 271 270 267 265 264 263 263 263 264 265
297 296 297 297 297 296 295 295 294 292 290 289 288 287 286 285 284 283 284 284 284 284 284 284 283 283 282 281 280 279 277 275 272 271 270 269 267 266 264 264 264 265 266
298 296 295 296 296 295 294 294 292 291 290 289 289 288 287 286 285 284 284 284 284 284 284 283 283 282 281 279 279 279 278 277 276 274 271 270 270 268 266 266 265 265 266
298 298 297 296 296 295 294 294 293 292 290 289 289 289 287 285 285 285 285 285 284 284 285 284 284 282 281 279 278 277 277 277 277 276 272 271 270 269 269 268 266 265 264
296 296 297 297 296 295 294 294 294 292 291 290 289 288 287 285 285 285 285 285 285 285 285 285 284 284 282 280 278 277 277 276 276 275 273 270 269 269 269 269 267 266 265
294 295 295 297 297 295 294 294 293 292 292 291 290 289 288 288 287 286 286 286 284 284 285 286 285 285 284 283 280 278 277 276 275 274 273 272 271 271 270 270 269 268 266
294 295 295 295 294 293 293 291 291 291 292 291 291 291 290 289 289 288 287 286 285 285 285 287 287 285 284 283 282 281 279 277 276 275 274 274 274 274 273 271 270 270 269
292 293 293 293 292 291 290 289 288 289 290 292 292 293 291 290 289 288 287 286 286 286 286 287 287 286 285 284 282 281 280 279 277 277 276 275 274 274 273 272 271 272 271
Height
5899 5899 5898 5897 5896 5896 5895 5895 5895 5894 5894 5894 5895 5895 5894 5895 5895 5895 5894 5894 5894 5894 5894 5893 5893 5893 5893 5892 5892 5891 5891 5890 5890 5889 5889 5888 5888 5887 5887 5886 5886 5886 5885
5898 5897 5897 5896 5896 5895 5894 5894 5894 5893 5893 5893 5893 5893 5893 5893 5893 5893 5893 5892 5893 5893 5892 5892 5892 5892 5891 5891 5890 5890 5890 5889 5888 5888 5887 5887 5886 5886 5885 5885 5884 5884 5883
5897 5896 5896 5895 5894 5894 5893 5893 5892 5892 5892 5891 5891 5891 5891 5891 5891 5891 5891 5891 5891 5891 5891 5890 5890 5890 5890 5889 5889 5888 5888 5887 5887 5886 5886 5885 5884 5884 5884 5883 5883 5882 5881
5896 5895 5894 5894 5893 5892 5892 5891 5890 5890 5890 5890 5889 5889 5890 5890 5889 5889 5889 5889 5889 5889 5889 5888 5888 5888 5887 5887 5887 5886 5885 5885 5884 5884 5883 5883 5882 5882 5881 5881 5880 5880 5880
5895 5893 5893 5892 5891 5891 5890 5890 5889 5888 5888 5888 5888 5888 5888 5887 5887 5887 5887 5887 5886 5886 5886 5886 5885 5885 5885 5884 5884 5884 5883 5882 5882 5881 5881 5881 5880 5880 5879 5878 5878 5878 5877
5894 5893 5892 5891 5890 5889 5888 5888 5887 5886 5886 5886 5886 5886 5885 5885 5885 5885 5884 5884 5884 5884 5883 5883 5882 5882 5882 5881 5881 5881 5880 5879 5879 5879 5878 5878 5877 5877 5876 5876 5875 5875 5874
5893 5892 5891 5890 5888 5887 5886 5885 5884 5884 5884 5884 5883 5883 5883 5882 5882 5882 5882 5881 5881 5881 5880 5880 5879 5879 5879 5878 5878 5877 5877 5876 5875 5875 5875 5875 5874 5874 5873 5873 5872 5871 5871
5892 5891 5890 5888 5887 5885 5883 5882 5881 5881 5881 5881 5881 5880 5880 5880 5879 5879 5879 5878 5878 5878 5877 5877 5876 5876 5875 5875 5874 5874 5873 5872 5872 5871 5871 5871 5870 5870 5870 5869 5869 5868 5867
5891 5890 5888 5887 5885 5883 5881 5880 5878 5878 5878 5877 5877 5877 5877 5877 5876 5876 5875 5875 5875 5874 5874 5873 5873 5872 5871 5871 5870 5869 5869 5868 5867 5867 5867 5867 5867 5866 5866 5866 5865 5864 5864
5890 5888 5887 5885 5883 5881 5879 5878 5877 5876 5875 5874 5873 5873 5873 5873 5873 5872 5872 5871 5871 5870 5869 5869 5868 5868 5867 5867 5866 5865 5864 5864 5863 5863 5862 5862 5862 5862 5862 5861 5861 5860 5860
5888 5886 5885 5883 5881 5879 5877 5875 5874 5873 5872 5871 5870 5869 5869 5868 5868 5868 5867 5867 5866 5865 5865 5864 5864 5863 5863 5862 5861 5860 5859 5859 5858 5858 5858 5858 5858 5857 5857 5857 5856 5856 5855
5886 5884 5883 5881 5879 5877 5875 5873 5871 5870 5868 5867 5866 5865 5865 5864 5864 5863 5863 5862 5861 5860 5859 5859 5859 5858 5857 5856 5855 5855 5854 5854 5853 5853 5853 5853 5852 5852 5852 5851 5851 5850 5850
5883 5881 5880 5878 5876 5874 5871 5870 5868 5866 5864 5863 5862 5861 5861 5860 5859 5858 5858 5857 5856 5856 5855 5854 5853 5852 5852 5851 5850 5849 5848 5848 5848 5847 5847 5847 5847 5846 5846 5846 5846 5845 5845
5880 5878 5876 5875 5873 5871 5869 5867 5865 5863 5861 5859 5858 5857 5856 5855 5854 5853 5853 5852 5851 5851 5850 5849 5848 5847 5846 5845 5845 5843 5843 5842 5842 5841 5841 5841 5840 5840 5840 5840 5840 5840 5840
5877 5875 5873 5871 5869 5867 5865 5863 5861 5859 5857 5855 5854 5852 5851 5850 5849 5848 5847 5846 5846 5845 5844 5843 5842 5841 5840 5839 5838 5837 5836 5836 5835 5835 5834 5834 5834 5834 5833 5834 5834 5834 5834
5873 5871 5869 5867 5865 5862 5860 5858 5856 5854 5853 5851 5849 5847 5846 5844 5843 5842 5841 5840 5839 5838 5837 5836 5835 5834 5833 5832 5831 5830 5829 5829 5828 5827 5827 5827 5827 5827 5827 5827 5827 5827 5827
5868 5866 5864 5862 5859 5857 5855 5853 5851 5849 5847 5845 5843 5842 5840 5838 5837 5836 5835 5834 5832 5831 5830 5830 5828 5826 5825 5824 5824 5823 5822 5821 5820 5820 5819 5819 5818 5819 5819 5819 5819 5819 5820
5863 5861 5858 5856 5854 5852 5850 5848 5846 5844 5841 5839 5837 5835 5834 5832 5831 5829 5828 5827 5825 5824 5823 5822 5820 5819 5818 5816 5815 5815 5814 5813 5812 5812 5811 5811 5810 5810 5811 5811 5811 5811 5811
5857 5855 5853 5850 5848 5846 5844 5842 5839 5837 5835 5833 5831 5829 5827 5826 5824 5822 5821 5820 5818 5817 5815 5814 5813 5811 5810 5808 5807 5806 5805 5805 5804 5803 5803 5802 5802 5802 5802 5802 5802 5802 5803
5851 5848 5846 5844 5841 5839 5837 5835 5832 5830 5828 5826 5824 5822 5820 5818 5817 5815 5813 5812 5811 5809 5807 5806 5804 5803 5801 5800 5799 5798 5797 5796 5795 5795 5794 5793 5793 5793 5793 5793 5794 5793 5793
5845 5842 5840 5837 5834 5832 5830 5828 5825 5823 5821 5819 5816 5814 5812 5810 5808 5807 5805 5804 5802 5801 5799 5797 5796 5794 5793 5791 5790 5789 5788 5787 5786 5786 5785 5784 5784 5784 5784 5783 5783 5784 5784
5837 5835 5832 5830 5827 5825 5823 5820 5818 5815 5813 5811 5809 5806 5804 5802 5800 5798 5797 5795 5794 5792 5791 5789 5787 5786 5784 5783 5781 5780 5779 5779 5778 5777 5776 5775 5775 5774 5774 5774 5773 5773 5774
5830 5827 5824 5822 5820 5817 5815 5812 5810 5807 5805 5803 5800 5798 5796 5794 5792 5790 5788 5787 5785 5783 5782 5780 5779 5777 5775 5774 5773 5771 5770 5769 5768 5767 5766 5765 5764 5764 5764 5763 5763 5763 5763
5821 5818 5816 5813 5811 5809 5807 5804 5802 5799 5797 5794 5792 5789 5787 5785 5783 5782 5780 5778 5776 5775 5773 5771 5770 5768 5766 5764 5763 5762 5760 5759 5758 5757 5756 5756 5755 5754 5754 5753 5752 5752 5752
5812 5810 5807 5805 5803 5800 5798 5796 5793 5791 5788 5786 5783 5781 5779 5777 5775 5773 5771 5770 5768 5766 5764 5762 5761 5759 5757 5755 5753 5751 5750 5749 5748 5747 5746 5746 5745 5744 5744 5743 5742 5742 5741
5803 5801 5799 5796 5793 5791 5789 5786 5784 5782 5780 5778 5775 5773 5771 5768 5766 5764 5762 5761 5759 5757 5755 5753 5751 5749 5748 5745 5744 5742 5741 5740 5739 5738 5737 5736 5735 5734 5734 5733 5732 5731 5731